Location: Unspecified
(0.0000°N, 0.0000°E)
Time: 01:36:24
(UTC+00:00)

Vanguard 2 - Visible Passes

Search period start: 26 May 2019 00:00
Search period end: 05 June 2019 00:00
Orbit: 552 x 2939 km, 32.9° (Epoch: 25 May)

Date Brightness Start Highest point End Pass type
(mag) Time Alt. Az. Time Alt. Az. Time Alt. Az.
26 May 11.3 19:28:44 10° NNW 19:32:26 11° N 19:35:48 10° NNE visible
26 May 10.8 21:40:04 10° NNW 21:44:44 17° N 21:44:44 17° N visible
27 May 11.1 19:46:30 10° NNW 19:52:02 13° N 19:56:44 10° NNE visible
27 May 10.7 21:57:20 10° NNW 22:01:32 20° NNW 22:01:32 20° NNW visible
28 May 10.8 20:04:00 10° NNW 20:11:26 16° NNE 20:16:58 11° NE visible
28 May 10.8 22:14:52 10° NW 22:18:22 20° NNW 22:18:22 20° NNW visible
29 May 11.5 18:07:30 10° NNW 18:14:52 14° N 18:21:23 10° NNE visible
29 May 10.5 20:21:28 10° NNW 20:30:37 21° NNE 20:33:47 18° NE visible
29 May 10.9 22:32:38 10° NW 22:35:12 18° NW 22:35:12 18° NW visible
30 May 11.3 18:26:23 10° NNW 18:34:41 15° N 18:41:44 10° NE visible
30 May 10.2 20:39:00 10° NNW 20:49:36 28° NNE 20:50:38 27° NNE visible
30 May 11.2 22:50:42 10° NW 22:52:03 14° NW 22:52:03 14° NW visible
31 May 11.1 18:44:35 10° NNW 18:54:19 18° NNE 19:02:10 10° NE visible
31 May 10.0 20:56:38 10° NW 21:07:30 37° NNE 21:07:30 37° NNE visible
01 Jun 10.9 19:02:27 10° NNW 19:13:42 23° NNE 19:22:16 10° ENE visible
01 Jun 9.9 21:14:26 10° NW 21:24:23 44° N 21:24:23 44° N visible
02 Jun 10.5 19:20:11 10° NNW 19:32:52 29° NNE 19:39:53 16° ENE visible
02 Jun 10.0 21:32:27 10° NW 21:41:17 44° NW 21:41:17 44° NW visible
03 Jun 10.2 19:37:56 10° NW 19:51:47 37° NNE 19:56:48 27° ENE visible
03 Jun 10.2 21:50:42 10° WNW 21:58:13 38° WNW 21:58:13 38° WNW visible
04 Jun 9.7 19:55:44 10° NW 20:10:29 49° NNE 20:13:45 40° ENE visible
04 Jun 10.6 22:09:19 10° WNW 22:15:10 29° WNW 22:15:10 29° WNW visible
